Location: Bas Lanzent
(48.1360°N, 3.5871°W)
Time: 23:12:19
(UTC+00:00)

Meteor 2-10 Rocket - Pass Details

Date: 18 February 2020
Orbit: 734 x 884 km, 81.2° (Epoch: 05 April)

Event Time Altitude Azimuth Distance (km) Brightness Sun altitude
Exits shadow 04:03:58 44° 97° (E) 1,076 4.5 -32.5°
Maximum altitude 04:04:03 44° 94° (E) 1,075 4.5 -32.5°
Drops below altitude 10° 04:08:58 10° 23° (NNE) 2,315 6.4 -31.7°
Sets 04:11:22 0° 18° (NNE) 3,227 7.2 -31.3°
